Year,Month,Day,Hour,Minute,Value (Times are PST for windspeed in km/hr)
2007,05,08,00,00,1.50
2007,05,08,00,01,2.30
2007,05,08,00,02,1.90
2007,05,08,00,03,2.00
2007,05,08,00,04,1.30
2007,05,08,00,05,0.10
2007,05,08,00,06,0.00
2007,05,08,00,07,0.00
2007,05,08,00,08,0.00
2007,05,08,00,09,0.00
2007,05,08,00,10,0.00
2007,05,08,00,11,0.00
2007,05,08,00,12,0.00
2007,05,08,00,13,0.00
2007,05,08,00,14,0.10
2007,05,08,00,15,1.50
2007,05,08,00,16,1.30
2007,05,08,00,17,1.50
2007,05,08,00,18,1.50
2007,05,08,00,19,1.50
2007,05,08,00,20,1.40
2007,05,08,00,21,2.00
2007,05,08,00,22,2.20
2007,05,08,00,23,2.00
2007,05,08,00,24,1.20
2007,05,08,00,25,0.00
2007,05,08,00,26,0.00
2007,05,08,00,27,0.00
2007,05,08,00,28,0.00
2007,05,08,00,29,0.50
2007,05,08,00,30,0.90
2007,05,08,00,31,0.20
2007,05,08,00,32,0.90
2007,05,08,00,33,0.30
2007,05,08,00,34,0.60
2007,05,08,00,35,0.10
2007,05,08,00,36,0.00
2007,05,08,00,37,0.00
2007,05,08,00,38,0.10
2007,05,08,00,39,1.20
2007,05,08,00,40,0.00
2007,05,08,00,41,0.60
2007,05,08,00,42,1.50
2007,05,08,00,43,1.50
2007,05,08,00,44,1.80
2007,05,08,00,45,2.50
2007,05,08,00,46,2.50
2007,05,08,00,47,2.10
2007,05,08,00,48,0.30
2007,05,08,00,49,1.80
2007,05,08,00,50,1.10
2007,05,08,00,51,1.00
2007,05,08,00,52,0.90
2007,05,08,00,53,1.20
2007,05,08,00,54,1.90
2007,05,08,00,55,2.50
2007,05,08,00,56,1.60
2007,05,08,00,57,0.10
2007,05,08,00,58,1.40
2007,05,08,00,59,1.50
2007,05,08,01,00,0.20
2007,05,08,01,01,0.20
2007,05,08,01,02,0.00
2007,05,08,01,03,1.40
2007,05,08,01,04,2.00
2007,05,08,01,05,1.00
2007,05,08,01,06,0.00
2007,05,08,01,07,0.00
2007,05,08,01,08,1.20
2007,05,08,01,09,2.30
2007,05,08,01,10,3.00
2007,05,08,01,11,1.60
2007,05,08,01,12,2.30
2007,05,08,01,13,2.70
2007,05,08,01,14,0.10
2007,05,08,01,15,0.00
2007,05,08,01,16,1.10
2007,05,08,01,17,1.30
2007,05,08,01,18,1.90
2007,05,08,01,19,1.90
2007,05,08,01,20,1.90
2007,05,08,01,21,1.70
2007,05,08,01,22,1.40
2007,05,08,01,23,1.70
2007,05,08,01,24,3.10
2007,05,08,01,25,2.40
2007,05,08,01,26,0.10
2007,05,08,01,27,0.00
2007,05,08,01,28,0.00
2007,05,08,01,29,0.00
2007,05,08,01,30,0.00
2007,05,08,01,31,0.00
2007,05,08,01,32,0.00
2007,05,08,01,33,0.90
2007,05,08,01,34,1.10
2007,05,08,01,35,0.10
2007,05,08,01,36,0.00
2007,05,08,01,37,0.90
2007,05,08,01,38,1.80
2007,05,08,01,39,2.80
2007,05,08,01,40,2.70
2007,05,08,01,41,2.40
2007,05,08,01,42,2.20
2007,05,08,01,43,1.90
2007,05,08,01,44,0.70
2007,05,08,01,45,1.50
2007,05,08,01,46,2.60
2007,05,08,01,47,2.40
2007,05,08,01,48,3.50
2007,05,08,01,49,3.30
2007,05,08,01,50,1.50
2007,05,08,01,51,1.20
2007,05,08,01,52,1.00
2007,05,08,01,53,0.10
2007,05,08,01,54,0.70
2007,05,08,01,55,0.20
2007,05,08,01,56,0.00
2007,05,08,01,57,0.00
2007,05,08,01,58,0.20
2007,05,08,01,59,1.70
2007,05,08,02,00,1.90
2007,05,08,02,01,2.20
2007,05,08,02,02,2.30
2007,05,08,02,03,2.10
2007,05,08,02,04,2.30
2007,05,08,02,05,0.80
2007,05,08,02,06,0.10
2007,05,08,02,07,0.00
2007,05,08,02,08,0.00
2007,05,08,02,09,0.00
2007,05,08,02,10,0.50
2007,05,08,02,11,0.60
2007,05,08,02,12,1.10
2007,05,08,02,13,1.40
2007,05,08,02,14,1.50
2007,05,08,02,15,1.90
2007,05,08,02,16,0.70
2007,05,08,02,17,1.30
2007,05,08,02,18,1.10
2007,05,08,02,19,0.20
2007,05,08,02,20,0.00
2007,05,08,02,21,0.40
2007,05,08,02,22,0.00
2007,05,08,02,23,1.40
2007,05,08,02,24,1.90
2007,05,08,02,25,1.60
2007,05,08,02,26,1.70
2007,05,08,02,27,0.60
2007,05,08,02,28,0.50
2007,05,08,02,29,0.20
2007,05,08,02,30,0.00
2007,05,08,02,31,0.00
2007,05,08,02,32,0.00
2007,05,08,02,33,1.10
2007,05,08,02,34,0.20
2007,05,08,02,35,0.60
2007,05,08,02,36,0.10
2007,05,08,02,37,0.10
2007,05,08,02,38,1.10
2007,05,08,02,39,2.40
2007,05,08,02,40,1.50
2007,05,08,02,41,0.60
2007,05,08,02,42,0.50
2007,05,08,02,43,0.80
2007,05,08,02,44,0.10
2007,05,08,02,45,0.70
2007,05,08,02,46,1.00
2007,05,08,02,47,0.80
2007,05,08,02,48,0.20
2007,05,08,02,49,0.30
2007,05,08,02,50,0.00
2007,05,08,02,51,0.00
2007,05,08,02,52,0.00
2007,05,08,02,53,0.90
2007,05,08,02,54,1.60
2007,05,08,02,55,0.30
2007,05,08,02,56,0.90
2007,05,08,02,57,0.40
2007,05,08,02,58,0.20
2007,05,08,02,59,1.20
2007,05,08,03,00,2.10
2007,05,08,03,01,1.60
2007,05,08,03,02,2.10
2007,05,08,03,03,1.10
2007,05,08,03,04,0.10
2007,05,08,03,05,0.00
2007,05,08,03,06,0.00
2007,05,08,03,07,0.30
2007,05,08,03,08,0.00
2007,05,08,03,09,1.00
2007,05,08,03,10,1.80
2007,05,08,03,11,2.30
2007,05,08,03,12,2.00
2007,05,08,03,13,1.50
2007,05,08,03,14,0.80
2007,05,08,03,15,0.00
2007,05,08,03,16,0.00
2007,05,08,03,17,1.60
2007,05,08,03,18,1.80
2007,05,08,03,19,1.50
2007,05,08,03,20,1.20
2007,05,08,03,21,1.70
2007,05,08,03,22,1.70
2007,05,08,03,23,0.20
2007,05,08,03,24,1.00
2007,05,08,03,25,0.60
2007,05,08,03,26,0.00
2007,05,08,03,27,0.10
2007,05,08,03,28,0.70
2007,05,08,03,29,1.20
2007,05,08,03,30,0.20
2007,05,08,03,31,0.00
2007,05,08,03,32,0.00
2007,05,08,03,33,0.00
2007,05,08,03,34,0.00
2007,05,08,03,35,0.50
2007,05,08,03,36,0.20
2007,05,08,03,37,1.80
2007,05,08,03,38,2.60
2007,05,08,03,39,0.70
2007,05,08,03,40,0.10
2007,05,08,03,41,1.50
2007,05,08,03,42,1.00
2007,05,08,03,43,0.20
2007,05,08,03,44,0.00
2007,05,08,03,45,0.10
2007,05,08,03,46,0.10
2007,05,08,03,47,0.30
2007,05,08,03,48,1.80
2007,05,08,03,49,0.90
2007,05,08,03,50,1.90
2007,05,08,03,51,1.80
2007,05,08,03,52,1.70
2007,05,08,03,53,1.50
2007,05,08,03,54,1.00
2007,05,08,03,55,0.70
2007,05,08,03,56,0.00
2007,05,08,03,57,0.70
2007,05,08,03,58,2.00
2007,05,08,03,59,1.80
2007,05,08,04,00,1.10
2007,05,08,04,01,0.00
2007,05,08,04,02,0.00
2007,05,08,04,03,0.00
2007,05,08,04,04,0.30
2007,05,08,04,05,1.00
2007,05,08,04,06,1.60
2007,05,08,04,07,0.80
2007,05,08,04,08,1.60
2007,05,08,04,09,1.40
2007,05,08,04,10,1.70
2007,05,08,04,11,0.40
2007,05,08,04,12,0.00
2007,05,08,04,13,0.50
2007,05,08,04,14,1.90
2007,05,08,04,15,1.10
2007,05,08,04,16,0.60
2007,05,08,04,17,0.50
2007,05,08,04,18,1.70
2007,05,08,04,19,2.40
2007,05,08,04,20,1.90
2007,05,08,04,21,0.40
2007,05,08,04,22,0.00
2007,05,08,04,23,0.20
2007,05,08,04,24,1.60
2007,05,08,04,25,2.00
2007,05,08,04,26,3.00
2007,05,08,04,27,1.40
2007,05,08,04,28,0.20
2007,05,08,04,29,2.10
2007,05,08,04,30,1.90
2007,05,08,04,31,1.80
2007,05,08,04,32,2.00
2007,05,08,04,33,2.30
2007,05,08,04,34,2.80
2007,05,08,04,35,1.70
2007,05,08,04,36,0.80
2007,05,08,04,37,0.00
2007,05,08,04,38,0.80
2007,05,08,04,39,3.30
2007,05,08,04,40,2.20
2007,05,08,04,41,0.40
2007,05,08,04,42,1.20
2007,05,08,04,43,0.60
2007,05,08,04,44,0.40
2007,05,08,04,45,2.10
2007,05,08,04,46,1.90
2007,05,08,04,47,0.70
2007,05,08,04,48,0.00
2007,05,08,04,49,0.30
2007,05,08,04,50,0.00
2007,05,08,04,51,0.30
2007,05,08,04,52,1.20
2007,05,08,04,53,1.80
2007,05,08,04,54,1.00
2007,05,08,04,55,0.10
2007,05,08,04,56,0.60
2007,05,08,04,57,0.30
2007,05,08,04,58,0.00
2007,05,08,04,59,0.00
2007,05,08,05,00,0.20
2007,05,08,05,01,1.90
2007,05,08,05,02,1.00
2007,05,08,05,03,0.20
2007,05,08,05,04,1.80
2007,05,08,05,05,1.10
2007,05,08,05,06,2.10
2007,05,08,05,07,0.20
2007,05,08,05,08,0.00
2007,05,08,05,09,0.00
2007,05,08,05,10,1.00
2007,05,08,05,11,1.50
2007,05,08,05,12,0.20
2007,05,08,05,13,0.30
2007,05,08,05,14,1.90
2007,05,08,05,15,0.20
2007,05,08,05,16,0.10
2007,05,08,05,17,0.00
2007,05,08,05,18,0.00
2007,05,08,05,19,1.20
2007,05,08,05,20,1.60
2007,05,08,05,21,1.70
2007,05,08,05,22,1.10
2007,05,08,05,23,0.00
2007,05,08,05,24,0.00
2007,05,08,05,25,0.00
2007,05,08,05,26,0.20
2007,05,08,05,27,2.00
2007,05,08,05,28,2.40
2007,05,08,05,29,0.30
2007,05,08,05,30,0.00
2007,05,08,05,31,0.00
2007,05,08,05,32,0.10
2007,05,08,05,33,1.10
2007,05,08,05,34,3.20
2007,05,08,05,35,3.40
2007,05,08,05,36,3.10
2007,05,08,05,37,4.60
2007,05,08,05,38,3.60
2007,05,08,05,39,1.60
2007,05,08,05,40,1.30
2007,05,08,05,41,0.20
2007,05,08,05,42,2.30
2007,05,08,05,43,2.40
2007,05,08,05,44,2.00
2007,05,08,05,45,0.70
2007,05,08,05,46,2.30
2007,05,08,05,47,1.50
2007,05,08,05,48,1.40
2007,05,08,05,49,1.10
2007,05,08,05,50,2.30
2007,05,08,05,51,1.40
2007,05,08,05,52,1.60
2007,05,08,05,53,1.50
2007,05,08,05,54,0.70
2007,05,08,05,55,1.50
2007,05,08,05,56,0.80
2007,05,08,05,57,2.10
2007,05,08,05,58,3.60
2007,05,08,05,59,1.10
2007,05,08,06,00,0.10
2007,05,08,06,01,0.00
2007,05,08,06,02,0.10
2007,05,08,06,03,0.00
2007,05,08,06,04,0.00
2007,05,08,06,05,0.00
2007,05,08,06,06,2.90
2007,05,08,06,07,3.20
2007,05,08,06,08,0.60
2007,05,08,06,09,0.90
2007,05,08,06,10,0.00
2007,05,08,06,11,0.00
2007,05,08,06,12,0.10
2007,05,08,06,13,0.90
2007,05,08,06,14,0.00
2007,05,08,06,15,0.20
2007,05,08,06,16,0.00
2007,05,08,06,17,0.20
2007,05,08,06,18,1.00
2007,05,08,06,19,2.00
2007,05,08,06,20,2.60
2007,05,08,06,21,2.00
2007,05,08,06,22,1.40
2007,05,08,06,23,0.80
2007,05,08,06,24,1.50
2007,05,08,06,25,2.60
2007,05,08,06,26,2.60
2007,05,08,06,27,1.40
2007,05,08,06,28,0.20
2007,05,08,06,29,0.80
2007,05,08,06,30,3.00
2007,05,08,06,31,3.00
2007,05,08,06,32,0.70
2007,05,08,06,33,0.00
2007,05,08,06,34,0.00
2007,05,08,06,35,0.00
2007,05,08,06,36,0.00
2007,05,08,06,37,0.10
2007,05,08,06,38,1.60
2007,05,08,06,39,1.80
2007,05,08,06,40,1.50
2007,05,08,06,41,0.40
2007,05,08,06,42,0.20
2007,05,08,06,43,0.20
2007,05,08,06,44,0.10
2007,05,08,06,45,0.00
2007,05,08,06,46,0.80
2007,05,08,06,47,0.10
2007,05,08,06,48,0.00
2007,05,08,06,49,0.00
2007,05,08,06,50,0.00
2007,05,08,06,51,0.00
2007,05,08,06,52,0.00
2007,05,08,06,53,0.00
2007,05,08,06,54,0.00
2007,05,08,06,55,0.00
2007,05,08,06,56,0.00
2007,05,08,06,57,0.00
2007,05,08,06,58,0.00
2007,05,08,06,59,0.00
2007,05,08,07,00,0.00
2007,05,08,07,01,0.00
2007,05,08,07,02,0.00
2007,05,08,07,03,0.60
2007,05,08,07,04,1.10
2007,05,08,07,05,2.10
2007,05,08,07,06,1.30
2007,05,08,07,07,1.00
2007,05,08,07,08,0.10
2007,05,08,07,09,0.00
2007,05,08,07,10,0.50
2007,05,08,07,11,2.20
2007,05,08,07,12,1.20
2007,05,08,07,13,0.60
2007,05,08,07,14,0.00
2007,05,08,07,15,0.00
2007,05,08,07,16,0.00
2007,05,08,07,17,0.00
2007,05,08,07,18,0.00
2007,05,08,07,19,0.40
2007,05,08,07,20,0.70
2007,05,08,07,21,0.20
2007,05,08,07,22,0.00
2007,05,08,07,23,0.10
2007,05,08,07,24,0.00
2007,05,08,07,25,0.10
2007,05,08,07,26,0.00
2007,05,08,07,27,0.10
2007,05,08,07,28,0.00
2007,05,08,07,29,0.00
2007,05,08,07,30,0.00
2007,05,08,07,31,0.00
2007,05,08,07,32,0.20
2007,05,08,07,33,0.10
2007,05,08,07,34,1.70
2007,05,08,07,35,2.00
2007,05,08,07,36,1.30
2007,05,08,07,37,3.00
2007,05,08,07,38,2.00
2007,05,08,07,39,0.20
2007,05,08,07,40,0.00
2007,05,08,07,41,0.00
2007,05,08,07,42,0.00
2007,05,08,07,43,0.00
2007,05,08,07,44,0.00
2007,05,08,07,45,0.00
2007,05,08,07,46,0.00
2007,05,08,07,47,0.00
2007,05,08,07,48,0.10
2007,05,08,07,49,0.00
2007,05,08,07,50,0.00
2007,05,08,07,51,0.00
2007,05,08,07,52,0.00
2007,05,08,07,53,0.00
2007,05,08,07,54,0.00
2007,05,08,07,55,0.00
2007,05,08,07,56,0.00
2007,05,08,07,57,0.00
2007,05,08,07,58,0.00
2007,05,08,07,59,0.00
2007,05,08,08,00,0.00
2007,05,08,08,01,0.00
2007,05,08,08,02,0.20
2007,05,08,08,03,2.00
2007,05,08,08,04,1.50
2007,05,08,08,05,0.30
2007,05,08,08,06,0.80
2007,05,08,08,07,1.40
2007,05,08,08,08,1.80
2007,05,08,08,09,1.10
2007,05,08,08,10,1.40
2007,05,08,08,11,2.30
2007,05,08,08,12,2.00
2007,05,08,08,13,2.20
2007,05,08,08,14,1.70
2007,05,08,08,15,2.30
2007,05,08,08,16,1.90
2007,05,08,08,17,2.30
2007,05,08,08,18,1.70
2007,05,08,08,19,1.40
2007,05,08,08,20,0.00
2007,05,08,08,21,0.60
2007,05,08,08,22,2.30
2007,05,08,08,23,0.80
2007,05,08,08,24,2.40
2007,05,08,08,25,2.30
2007,05,08,08,26,1.00
2007,05,08,08,27,3.00
2007,05,08,08,28,2.90
2007,05,08,08,29,2.20
2007,05,08,08,30,4.20
2007,05,08,08,31,5.90
2007,05,08,08,32,5.80
2007,05,08,08,33,5.50
2007,05,08,08,34,6.40
2007,05,08,08,35,5.40
2007,05,08,08,36,6.80
2007,05,08,08,37,5.50
2007,05,08,08,38,6.40
2007,05,08,08,39,4.20
2007,05,08,08,40,3.60
2007,05,08,08,41,5.70
2007,05,08,08,42,7.10
2007,05,08,08,43,6.80
2007,05,08,08,44,7.50
2007,05,08,08,45,9.20
2007,05,08,08,46,9.30
2007,05,08,08,47,7.50
2007,05,08,08,48,7.10
2007,05,08,08,49,7.40
2007,05,08,08,50,9.40
2007,05,08,08,51,7.20
2007,05,08,08,52,6.70
2007,05,08,08,53,4.50
2007,05,08,08,54,7.40
2007,05,08,08,55,7.60
2007,05,08,08,56,6.60
2007,05,08,08,57,4.90
2007,05,08,08,58,4.70
2007,05,08,08,59,6.80
2007,05,08,09,00,5.70
2007,05,08,09,01,3.70
2007,05,08,09,02,7.20
2007,05,08,09,03,8.10
2007,05,08,09,04,7.90
2007,05,08,09,05,7.30
2007,05,08,09,06,6.60
2007,05,08,09,07,8.00
2007,05,08,09,08,7.40
2007,05,08,09,09,6.80
2007,05,08,09,10,7.70
2007,05,08,09,11,7.70
2007,05,08,09,12,8.60
2007,05,08,09,13,5.50
2007,05,08,09,14,4.60
2007,05,08,09,15,8.00
2007,05,08,09,16,8.10
2007,05,08,09,17,7.40
2007,05,08,09,18,8.10
2007,05,08,09,19,8.50
2007,05,08,09,20,7.30
2007,05,08,09,21,7.70
2007,05,08,09,22,8.10
2007,05,08,09,23,8.50
2007,05,08,09,24,7.40
2007,05,08,09,25,6.70
2007,05,08,09,26,3.80
2007,05,08,09,27,3.40
2007,05,08,09,28,5.00
2007,05,08,09,29,6.20
2007,05,08,09,30,8.10
2007,05,08,09,31,4.90
2007,05,08,09,32,4.90
2007,05,08,09,33,6.40
2007,05,08,09,34,6.70
2007,05,08,09,35,6.90
2007,05,08,09,36,5.70
2007,05,08,09,37,9.00
2007,05,08,09,38,8.30
2007,05,08,09,39,8.60
2007,05,08,09,40,8.30
2007,05,08,09,41,8.10
2007,05,08,09,42,4.50
2007,05,08,09,43,6.40
2007,05,08,09,44,6.30
2007,05,08,09,45,7.50
2007,05,08,09,46,7.00
2007,05,08,09,47,10.10
2007,05,08,09,48,9.30
2007,05,08,09,49,6.30
2007,05,08,09,50,7.60
2007,05,08,09,51,5.70
2007,05,08,09,52,5.20
2007,05,08,09,53,7.80
2007,05,08,09,54,6.00
2007,05,08,09,55,4.90
2007,05,08,09,56,8.00
2007,05,08,09,57,7.50
2007,05,08,09,58,5.40
2007,05,08,09,59,6.60
2007,05,08,10,00,7.40
2007,05,08,10,01,5.80
2007,05,08,10,02,7.00
2007,05,08,10,03,8.30
2007,05,08,10,04,8.10
2007,05,08,10,05,9.00
2007,05,08,10,06,10.40
2007,05,08,10,07,9.10
2007,05,08,10,08,9.50
2007,05,08,10,09,10.40
2007,05,08,10,10,10.00
2007,05,08,10,11,9.00
2007,05,08,10,12,5.70
2007,05,08,10,13,6.40
2007,05,08,10,14,6.80
2007,05,08,10,15,7.40
2007,05,08,10,16,7.30
2007,05,08,10,17,7.60
2007,05,08,10,18,9.00
2007,05,08,10,19,7.20
2007,05,08,10,20,5.60
2007,05,08,10,21,7.30
2007,05,08,10,22,8.90
2007,05,08,10,23,10.80
2007,05,08,10,24,9.20
2007,05,08,10,25,8.60
2007,05,08,10,26,9.70
2007,05,08,10,27,8.70
2007,05,08,10,28,9.70
2007,05,08,10,29,12.50
2007,05,08,10,30,9.20
2007,05,08,10,31,7.50
2007,05,08,10,32,16.50
2007,05,08,10,33,15.30
2007,05,08,10,34,10.60
2007,05,08,10,35,13.80
2007,05,08,10,36,16.30
2007,05,08,10,37,13.20
2007,05,08,10,38,13.90
2007,05,08,10,39,14.60
2007,05,08,10,40,10.10
2007,05,08,10,41,13.10
2007,05,08,10,42,14.70
2007,05,08,10,43,10.80
2007,05,08,10,44,13.00
2007,05,08,10,45,9.80
2007,05,08,10,46,9.00
2007,05,08,10,47,12.00
2007,05,08,10,48,16.60
2007,05,08,10,49,17.10
2007,05,08,10,50,11.50
2007,05,08,10,51,14.00
2007,05,08,10,52,16.10
2007,05,08,10,53,11.00
2007,05,08,10,54,12.00
2007,05,08,10,55,16.60
2007,05,08,10,56,16.70
2007,05,08,10,57,19.60
2007,05,08,10,58,17.90
2007,05,08,10,59,11.10
2007,05,08,11,00,12.10
2007,05,08,11,01,8.60
2007,05,08,11,02,8.40
2007,05,08,11,03,15.20
2007,05,08,11,04,14.60
2007,05,08,11,05,13.50
2007,05,08,11,06,12.10
2007,05,08,11,07,11.60
2007,05,08,11,08,11.10
2007,05,08,11,09,9.30
2007,05,08,11,10,7.90
2007,05,08,11,11,11.40
2007,05,08,11,12,9.30
2007,05,08,11,13,4.50
2007,05,08,11,14,6.40
2007,05,08,11,15,6.40
2007,05,08,11,16,8.40
2007,05,08,11,17,8.40
2007,05,08,11,18,12.10
2007,05,08,11,19,9.20
2007,05,08,11,20,6.40
2007,05,08,11,21,6.10
2007,05,08,11,22,5.90
2007,05,08,11,23,5.00
2007,05,08,11,24,7.00
2007,05,08,11,25,9.00
2007,05,08,11,26,8.90
2007,05,08,11,27,8.90
2007,05,08,11,28,6.60
2007,05,08,11,29,6.90
2007,05,08,11,30,8.80
2007,05,08,11,31,6.90
2007,05,08,11,32,6.40
2007,05,08,11,33,7.40
2007,05,08,11,34,6.60
2007,05,08,11,35,4.10
2007,05,08,11,36,3.90
2007,05,08,11,37,4.90
2007,05,08,11,38,4.60
2007,05,08,11,39,4.20
2007,05,08,11,40,3.30
2007,05,08,11,41,3.50
2007,05,08,11,42,2.20
2007,05,08,11,43,3.20
2007,05,08,11,44,3.50
2007,05,08,11,45,2.30
2007,05,08,11,46,4.30
2007,05,08,11,47,4.30
2007,05,08,11,48,5.60
2007,05,08,11,49,4.30
2007,05,08,11,50,2.70
2007,05,08,11,51,3.70
2007,05,08,11,52,2.10
2007,05,08,11,53,1.10
2007,05,08,11,54,0.90
2007,05,08,11,55,1.90
2007,05,08,11,56,6.10
2007,05,08,11,57,8.30
2007,05,08,11,58,6.10
2007,05,08,11,59,6.10
2007,05,08,12,00,6.80
2007,05,08,12,01,4.70
2007,05,08,12,02,3.90
2007,05,08,12,03,3.30
2007,05,08,12,04,12.30
2007,05,08,12,05,6.70
2007,05,08,12,06,3.00
2007,05,08,12,07,4.40
2007,05,08,12,08,5.90
2007,05,08,12,09,5.30
2007,05,08,12,10,4.50
2007,05,08,12,11,3.50
2007,05,08,12,12,3.50
2007,05,08,12,13,2.70
2007,05,08,12,14,5.30
2007,05,08,12,15,6.00
2007,05,08,12,16,3.50
2007,05,08,12,17,3.90
2007,05,08,12,18,8.80
2007,05,08,12,19,7.00
2007,05,08,12,20,7.60
2007,05,08,12,21,5.20
2007,05,08,12,22,5.30
2007,05,08,12,23,7.90
2007,05,08,12,24,9.10
2007,05,08,12,25,8.50
2007,05,08,12,26,5.10
2007,05,08,12,27,11.50
2007,05,08,12,28,16.70
2007,05,08,12,29,19.20
2007,05,08,12,30,14.20
2007,05,08,12,31,13.50
2007,05,08,12,32,17.10
2007,05,08,12,33,16.20
2007,05,08,12,34,14.60
2007,05,08,12,35,18.70
2007,05,08,12,36,16.50
2007,05,08,12,37,22.00
2007,05,08,12,38,18.20
2007,05,08,12,39,17.50
2007,05,08,12,40,10.10
2007,05,08,12,41,14.80
2007,05,08,12,42,15.10
2007,05,08,12,43,20.00
2007,05,08,12,44,19.30
2007,05,08,12,45,11.10
2007,05,08,12,46,9.80
2007,05,08,12,47,14.60
2007,05,08,12,48,19.00
2007,05,08,12,49,16.80
2007,05,08,12,50,12.40
2007,05,08,12,51,16.50
2007,05,08,12,52,17.10
2007,05,08,12,53,11.20
2007,05,08,12,54,13.80
2007,05,08,12,55,12.00
2007,05,08,12,56,13.50
2007,05,08,12,57,25.30
2007,05,08,12,58,20.40
2007,05,08,12,59,18.00
2007,05,08,13,00,12.80
2007,05,08,13,01,23.10
2007,05,08,13,02,20.20
2007,05,08,13,03,18.80
2007,05,08,13,04,23.70
2007,05,08,13,05,17.10
2007,05,08,13,06,24.00
2007,05,08,13,07,19.70
2007,05,08,13,08,17.60
2007,05,08,13,09,15.30
2007,05,08,13,10,16.70
2007,05,08,13,11,12.40
2007,05,08,13,12,17.10
2007,05,08,13,13,16.50
2007,05,08,13,14,9.70
2007,05,08,13,15,12.40
2007,05,08,13,16,13.30
2007,05,08,13,17,13.10
2007,05,08,13,18,17.70
2007,05,08,13,19,18.60
2007,05,08,13,20,14.10
2007,05,08,13,21,20.00
2007,05,08,13,22,25.00
2007,05,08,13,23,26.00
2007,05,08,13,24,22.50
2007,05,08,13,25,17.80
2007,05,08,13,26,19.50
2007,05,08,13,27,14.60
2007,05,08,13,28,17.20
2007,05,08,13,29,17.30
2007,05,08,13,30,16.10
2007,05,08,13,31,10.50
2007,05,08,13,32,11.60
2007,05,08,13,33,8.50
2007,05,08,13,34,8.80
2007,05,08,13,35,11.90
2007,05,08,13,36,11.30
2007,05,08,13,37,15.40
2007,05,08,13,38,15.70
2007,05,08,13,39,17.10
2007,05,08,13,40,14.40
2007,05,08,13,41,14.00
2007,05,08,13,42,15.30
2007,05,08,13,43,15.00
2007,05,08,13,44,17.60
2007,05,08,13,45,12.40
2007,05,08,13,46,13.00
2007,05,08,13,47,15.50
2007,05,08,13,48,14.60
2007,05,08,13,49,22.80
2007,05,08,13,50,28.60
2007,05,08,13,51,18.40
2007,05,08,13,52,15.60
2007,05,08,13,53,12.50
2007,05,08,13,54,12.80
2007,05,08,13,55,15.20
2007,05,08,13,56,13.70
2007,05,08,13,57,14.60
2007,05,08,13,58,8.70
2007,05,08,13,59,7.80
2007,05,08,14,00,11.70
2007,05,08,14,01,12.70
2007,05,08,14,02,6.40
2007,05,08,14,03,12.70
2007,05,08,14,04,7.50
2007,05,08,14,05,17.60
2007,05,08,14,06,13.60
2007,05,08,14,07,15.70
2007,05,08,14,08,25.20
2007,05,08,14,09,16.60
2007,05,08,14,10,10.10
2007,05,08,14,11,13.40
2007,05,08,14,12,14.90
2007,05,08,14,13,20.90
2007,05,08,14,14,11.30
2007,05,08,14,15,8.00
2007,05,08,14,16,18.40
2007,05,08,14,17,13.00
2007,05,08,14,18,15.50
2007,05,08,14,19,16.80
2007,05,08,14,20,18.40
2007,05,08,14,21,15.80
2007,05,08,14,22,15.80
2007,05,08,14,23,8.00
2007,05,08,14,24,8.40
2007,05,08,14,25,7.20
2007,05,08,14,26,3.40
2007,05,08,14,27,5.90
2007,05,08,14,28,18.60
2007,05,08,14,29,17.60
2007,05,08,14,30,9.20
2007,05,08,14,31,13.40
2007,05,08,14,32,8.80
2007,05,08,14,33,13.30
2007,05,08,14,34,12.50
2007,05,08,14,35,10.30
2007,05,08,14,36,8.70
2007,05,08,14,37,11.30
2007,05,08,14,38,14.10
2007,05,08,14,39,22.00
2007,05,08,14,40,12.90
2007,05,08,14,41,16.50
2007,05,08,14,42,20.00
2007,05,08,14,43,16.50
2007,05,08,14,44,13.70
2007,05,08,14,45,14.00
2007,05,08,14,46,12.70
2007,05,08,14,47,16.70
2007,05,08,14,48,25.30
2007,05,08,14,49,18.70
2007,05,08,14,50,20.10
2007,05,08,14,51,18.70
2007,05,08,14,52,19.60
2007,05,08,14,53,26.10
2007,05,08,14,54,25.50
2007,05,08,14,55,21.20
2007,05,08,14,56,26.40
2007,05,08,14,57,24.60
2007,05,08,14,58,22.40
2007,05,08,14,59,19.80
2007,05,08,15,00,22.30
2007,05,08,15,01,21.90
2007,05,08,15,02,28.00
2007,05,08,15,03,31.30
2007,05,08,15,04,27.40
2007,05,08,15,05,23.40
2007,05,08,15,06,24.90
2007,05,08,15,07,22.20
2007,05,08,15,08,30.00
2007,05,08,15,09,35.60
2007,05,08,15,10,31.20
2007,05,08,15,11,38.10
2007,05,08,15,12,34.00
2007,05,08,15,13,34.50
2007,05,08,15,14,24.10
2007,05,08,15,15,28.10
2007,05,08,15,16,34.90
2007,05,08,15,17,34.50
2007,05,08,15,18,40.00
2007,05,08,15,19,32.60
2007,05,08,15,20,40.90
2007,05,08,15,21,30.60
2007,05,08,15,22,26.50
2007,05,08,15,23,29.90
2007,05,08,15,24,31.60
2007,05,08,15,25,33.00
2007,05,08,15,26,20.60
2007,05,08,15,27,29.10
2007,05,08,15,28,32.70
2007,05,08,15,29,35.90
2007,05,08,15,30,44.30
2007,05,08,15,31,34.00
2007,05,08,15,32,32.30
2007,05,08,15,33,29.90
2007,05,08,15,34,37.80
2007,05,08,15,35,33.50
2007,05,08,15,36,34.30
2007,05,08,15,37,30.20
2007,05,08,15,38,33.10
2007,05,08,15,39,28.20
2007,05,08,15,40,25.20
2007,05,08,15,41,27.10
2007,05,08,15,42,31.10
2007,05,08,15,43,25.30
2007,05,08,15,44,30.70
2007,05,08,15,45,32.30
2007,05,08,15,46,31.30
2007,05,08,15,47,30.00
2007,05,08,15,48,30.10
2007,05,08,15,49,26.90
2007,05,08,15,50,32.20
2007,05,08,15,51,27.00
2007,05,08,15,52,31.40
2007,05,08,15,53,30.50
2007,05,08,15,54,32.70
2007,05,08,15,55,30.10
2007,05,08,15,56,25.60
2007,05,08,15,57,29.10
2007,05,08,15,58,29.70
2007,05,08,15,59,29.30
2007,05,08,16,00,30.30
2007,05,08,16,01,27.60
2007,05,08,16,02,22.20
2007,05,08,16,03,31.70
2007,05,08,16,04,31.10
2007,05,08,16,05,26.30
2007,05,08,16,06,30.00
2007,05,08,16,07,25.30
2007,05,08,16,08,24.00
2007,05,08,16,09,17.90
2007,05,08,16,10,24.10
2007,05,08,16,11,29.00
2007,05,08,16,12,25.60
2007,05,08,16,13,21.60
2007,05,08,16,14,16.50
2007,05,08,16,15,18.70
2007,05,08,16,16,23.00
2007,05,08,16,17,17.20
2007,05,08,16,18,26.90
2007,05,08,16,19,28.30
2007,05,08,16,20,22.70
2007,05,08,16,21,21.90
2007,05,08,16,22,25.00
2007,05,08,16,23,24.50
2007,05,08,16,24,23.50
2007,05,08,16,25,12.70
2007,05,08,16,26,13.00
2007,05,08,16,27,17.60
2007,05,08,16,28,23.10
2007,05,08,16,29,19.00
2007,05,08,16,30,11.50
2007,05,08,16,31,17.50
2007,05,08,16,32,19.10
2007,05,08,16,33,17.20
2007,05,08,16,34,20.00
2007,05,08,16,35,18.90
2007,05,08,16,36,18.10
2007,05,08,16,37,19.40
2007,05,08,16,38,16.70
2007,05,08,16,39,18.30
2007,05,08,16,40,15.40
2007,05,08,16,41,12.40
2007,05,08,16,42,14.00
2007,05,08,16,43,17.60
2007,05,08,16,44,19.70
2007,05,08,16,45,13.60
2007,05,08,16,46,15.10
2007,05,08,16,47,16.40
2007,05,08,16,48,17.90
2007,05,08,16,49,16.90
2007,05,08,16,50,15.00
2007,05,08,16,51,19.50
2007,05,08,16,52,15.50
2007,05,08,16,53,20.10
2007,05,08,16,54,18.10
2007,05,08,16,55,22.30
2007,05,08,16,56,16.80
2007,05,08,16,57,16.10
2007,05,08,16,58,12.50
2007,05,08,16,59,13.50
2007,05,08,17,00,16.40
2007,05,08,17,01,17.50
2007,05,08,17,02,17.80
2007,05,08,17,03,19.40
2007,05,08,17,04,20.40
2007,05,08,17,05,13.90
2007,05,08,17,06,15.00
2007,05,08,17,07,11.50
2007,05,08,17,08,13.90
2007,05,08,17,09,15.50
2007,05,08,17,10,15.40
2007,05,08,17,11,21.90
2007,05,08,17,12,13.30
2007,05,08,17,13,11.70
2007,05,08,17,14,15.30
2007,05,08,17,15,18.20
2007,05,08,17,16,14.20
2007,05,08,17,17,11.80
2007,05,08,17,18,18.60
2007,05,08,17,19,18.70
2007,05,08,17,20,16.20
2007,05,08,17,21,8.70
2007,05,08,17,22,17.10
2007,05,08,17,23,16.70
2007,05,08,17,24,15.90
2007,05,08,17,25,13.30
2007,05,08,17,26,19.30
2007,05,08,17,27,9.50
2007,05,08,17,28,10.50
2007,05,08,17,29,11.00
2007,05,08,17,30,12.50
2007,05,08,17,31,13.80
2007,05,08,17,32,18.50
2007,05,08,17,33,14.60
2007,05,08,17,34,13.80
2007,05,08,17,35,19.70
2007,05,08,17,36,21.20
2007,05,08,17,37,13.10
2007,05,08,17,38,16.60
2007,05,08,17,39,17.10
2007,05,08,17,40,13.00
2007,05,08,17,41,8.20
2007,05,08,17,42,10.80
2007,05,08,17,43,9.40
2007,05,08,17,44,12.30
2007,05,08,17,45,15.00
2007,05,08,17,46,10.20
2007,05,08,17,47,9.00
2007,05,08,17,48,7.10
2007,05,08,17,49,8.30
2007,05,08,17,50,13.80
2007,05,08,17,51,11.30